IW6PHZ-13 Weather Reports


Display with metric or nautical units.
time (UTC)temp
F
wind
direction
speed
MPH
gust
MPH
rain 1hr
in
rain 24hr
in
rain mn
in
humidity
%
barometer
mb
20260503230056 65 196 6.0 11.0 0.00 0.00 0.00 46 1017.0
20260503225546 65 186 6.0 13.0 0.00 0.00 0.00 46 1016.9
20260503225043 65 193 7.0 13.0 0.00 0.00 0.00 46 1016.9
20260503224550 64 192 7.0 12.0 0.00 0.00 0.00 47 1016.9
20260503224043 65 196 7.0 12.0 0.00 0.00 0.00 46 1016.9
20260503223543 65 198 7.0 12.0 0.00 0.00 0.00 46 1017.0
20260503223051 65 173 7.0 12.0 0.00 0.00 0.00 46 1016.9
20260503222542 64 182 7.0 12.0 0.00 0.00 0.00 46 1016.7
20260503222045 64 186 6.0 10.0 0.00 0.00 0.00 46 1016.8
20260503221559 64 191 6.0 11.0 0.00 0.00 0.00 46 1017.0
20260503221043 64 175 6.0 11.0 0.00 0.00 0.00 45 1016.9
20260503220543 64 175 6.0 10.0 0.00 0.00 0.00 45 1017.0
20260503220103 64 176 5.0 11.0 0.00 0.00 0.00 46 1017.1
20260503215543 63 177 6.0 11.0 0.00 0.00 0.00 46 1017.0
20260503215042 64 180 4.0 10.0 0.00 0.00 0.00 45 1017.0
20260503214554 64 193 4.0 10.0 0.00 0.00 0.00 44 1017.0
20260503214042 64 171 5.0 9.0 0.00 0.00 0.00 43 1017.1
20260503213545 64 177 4.0 9.0 0.00 0.00 0.00 43 1017.0
20260503213054 64 182 5.0 9.0 0.00 0.00 0.00 43 1017.0
20260503212542 64 167 4.0 10.0 0.00 0.00 0.00 43 1016.8
20260503212042 64 202 6.0 11.0 0.00 0.00 0.00 43 1017.0
20260503211557 64 175 5.0 11.0 0.00 0.00 0.00 43 1017.0
20260503211042 64 174 5.0 10.0 0.00 0.00 0.00 43 1016.8
20260503210542 64 212 5.0 10.0 0.00 0.00 0.00 43 1016.8
20260503210057 64 181 4.0 10.0 0.00 0.00 0.00 43 1016.9
20260503205543 64 172 4.0 9.0 0.00 0.00 0.00 43 1016.8
20260503205043 64 188 5.0 10.0 0.00 0.00 0.00 43 1017.0
20260503204602 64 194 5.0 10.0 0.00 0.00 0.00 43 1016.9
20260503204044 64 179 4.0 10.0 0.00 0.00 0.00 43 1016.8
20260503203542 64 169 5.0 9.0 0.00 0.00 0.00 43 1016.9
20260503203100 64 158 4.0 8.0 0.00 0.00 0.00 43 1016.9
20260503202542 64 184 4.0 8.0 0.00 0.00 0.00 43 1017.0
20260503202041 64 194 4.0 9.0 0.00 0.00 0.00 44 1016.9
20260503201551 64 178 5.0 9.0 0.00 0.00 0.00 43 1017.0
20260503201042 64 165 4.0 9.0 0.00 0.00 0.00 44 1017.1
20260503200543 65 183 4.0 9.0 0.00 0.00 0.00 43 1017.0
20260503200057 65 162 5.0 11.0 0.00 0.00 0.00 43 1017.1
20260503195541 64 166 5.0 11.0 0.00 0.00 0.00 43 1017.0
20260503195042 64 191 6.0 10.0 0.00 0.00 0.00 44 1017.1
20260503194616 64 190 6.0 10.0 0.00 0.00 0.00 44 1017.1
20260503194043 64 193 6.0 10.0 0.00 0.00 0.00 45 1017.1
20260503193546 65 197 7.0 10.0 0.00 0.00 0.00 44 1017.2
20260503193051 65 183 4.0 9.0 0.00 0.00 0.00 44 1017.1
20260503192545 64 171 4.0 9.0 0.00 0.00 0.00 44 1017.0
20260503192045 65 194 5.0 10.0 0.00 0.00 0.00 44 1017.0
20260503191602 65 197 6.0 10.0 0.00 0.00 0.00 45 1017.0
20260503191045 65 188 5.0 9.0 0.00 0.00 0.00 44 1017.0
20260503190546 65 175 4.0 9.0 0.00 0.00 0.00 43 1016.9
20260503190101 64 182 5.0 9.0 0.00 0.00 0.00 44 1017.0
20260503185545 64 199 5.0 9.0 0.00 0.00 0.00 44 1017.0
20260503185045 64 196 5.0 9.0 0.00 0.00 0.00 44 1016.9
20260503184555 64 198 6.0 9.0 0.00 0.00 0.00 44 1016.9
20260503184044 64 193 5.0 9.0 0.00 0.00 0.00 43 1016.8
20260503183544 64 183 5.0 9.0 0.00 0.00 0.00 44 1016.8
20260503183105 64 195 5.0 7.0 0.00 0.00 0.00 43 1016.8
20260503182545 65 179 4.0 7.0 0.00 0.00 0.00 44 1016.8
20260503182048 64 190 4.0 7.0 0.00 0.00 0.00 45 1016.8
20260503181550 64 189 3.0 7.0 0.00 0.00 0.00 46 1016.9
20260503181046 64 188 2.0 7.0 0.00 0.00 0.00 45 1016.7
20260503180546 64 188 3.0 7.0 0.00 0.00 0.00 44 1016.8
20260503180106 64 0 2.0 5.0 0.00 0.00 0.00 42 1016.7
20260503175543 64 188 1.0 4.0 0.00 0.00 0.00 44 1016.8
20260503175045 64 200 1.0 3.0 0.00 0.00 0.00 45 1016.7
20260503174552 64 0 0.0 2.0 0.00 0.00 0.00 49 1016.7
20260503174045 64 0 0.0 2.0 0.00 0.00 0.00 46 1016.7
20260503173545 64 0 0.0 3.0 0.00 0.00 0.00 48 1016.7
20260503173137 64 181 0.0 3.0 0.00 0.00 0.00 52 1016.7
20260503172544 64 0 0.0 4.0 0.00 0.00 0.00 53 1016.6
20260503172047 64 169 0.0 4.0 0.00 0.00 0.00 54 1016.7
20260503171553 64 0 0.0 3.0 0.00 0.00 0.00 53 1016.7
20260503171045 65 115 0.0 3.0 0.00 0.00 0.00 47 1016.8
20260503170546 66 115 0.0 3.0 0.00 0.00 0.00 42 1016.8
20260503150545 67 107 1.0 7.0 0.00 0.00 0.00 48 1017.1
20260503131045 70 82 1.0 5.0 0.00 0.00 0.00 42 1017.9
20260503130547 71 75 1.0 4.0 0.00 0.00 0.00 40 1017.9
20260503130108 71 84 1.0 4.0 0.00 0.00 0.00 40 1018.0
20260503120106 71 5 1.0 5.0 0.00 0.00 0.00 42 1018.7
20260503110547 69 53 1.0 4.0 0.00 0.00 0.00 39 1019.0
20260503081556 67 67 0.0 2.0 0.00 0.00 0.00 51 1019.8
20260503081043 68 59 0.0 2.0 0.00 0.00 0.00 52 1019.6
20260503080545 68 0 0.0 3.0 0.00 0.00 0.00 56 1019.6
20260503072545 66 0 0.0 4.0 0.00 0.00 0.00 43 1019.6
20260503072045 66 203 0.0 4.0 0.00 0.00 0.00 47 1019.6
20260503071550 66 225 0.0 4.0 0.00 0.00 0.00 45 1019.6
20260503071041 66 157 0.0 6.0 0.00 0.00 0.00 48 1019.7
20260503070545 64 200 1.0 6.0 0.00 0.00 0.00 48 1019.7
20260503055044 62 237 1.0 3.0 0.00 0.00 0.00 45 1019.3
20260503054550 62 243 0.0 3.0 0.00 0.00 0.00 47 1019.2
20260503054045 61 0 1.0 4.0 0.00 0.00 0.00 47 1019.3
20260503053545 61 239 1.0 4.0 0.00 0.00 0.00 47 1019.2
20260503053052 61 236 1.0 4.0 0.00 0.00 0.00 46 1019.3
20260503052545 61 249 1.0 4.0 0.00 0.00 0.00 46 1019.3
20260503052048 61 231 1.0 5.0 0.00 0.00 0.00 47 1019.2
20260503051551 61 251 2.0 5.0 0.00 0.00 0.00 47 1019.2
20260503051044 61 237 2.0 7.0 0.00 0.00 0.00 48 1019.2
20260503050544 60 249 3.0 7.0 0.00 0.00 0.00 50 1019.1
20260503050052 60 229 2.0 5.0 0.00 0.00 0.00 50 1019.1
20260503045546 60 232 2.0 5.0 0.00 0.00 0.00 50 1019.2
20260503045045 60 240 2.0 4.0 0.00 0.00 0.00 50 1019.1
20260503044551 60 242 1.0 5.0 0.00 0.00 0.00 50 1019.2
20260503044043 60 240 2.0 5.0 0.00 0.00 0.00 51 1019.2
20260503043545 60 242 2.0 5.0 0.00 0.00 0.00 51 1019.1
20260503043059 59 235 2.0 5.0 0.00 0.00 0.00 52 1019.1
20260503042545 59 237 1.0 3.0 0.00 0.00 0.00 52 1019.1
20260503042044 60 0 0.0 2.0 0.00 0.00 0.00 51 1019.1
20260503041549 59 38 0.0 2.0 0.00 0.00 0.00 51 1019.1
20260503041049 60 0 1.0 2.0 0.00 0.00 0.00 49 1019.0
20260503040544 61 0 0.0 2.0 0.00 0.00 0.00 49 1018.9
20260503040051 61 38 0.0 2.0 0.00 0.00 0.00 49 1018.9
20260503035544 61 0 0.0 1.0 0.00 0.00 0.00 49 1018.9
20260503035045 61 0 0.0 0.0 0.00 0.00 0.00 49 1018.9
20260503034552 61 0 0.0 0.0 0.00 0.00 0.00 49 1018.9
20260503034043 61 0 0.0 1.0 0.00 0.00 0.00 50 1019.0
20260503033544 61 0 0.0 2.0 0.00 0.00 0.00 50 1018.9
20260503033052 60 0 0.0 2.0 0.00 0.00 0.00 50 1019.0
20260503032543 60 38 0.0 2.0 0.00 0.00 0.00 51 1018.9
20260503032043 60 0 0.0 0.0 0.00 0.00 0.00 50 1019.0
20260503031607 61 0 0.0 0.0 0.00 0.00 0.00 49 1019.0
20260503031045 60 0 0.0 0.0 0.00 0.00 0.00 49 1019.1
20260503030543 60 0 0.0 1.0 0.00 0.00 0.00 49 1019.1
20260503030050 60 0 0.0 1.0 0.00 0.00 0.00 50 1018.9
20260503025543 60 0 0.0 2.0 0.00 0.00 0.00 49 1019.0
20260503025043 61 0 0.0 2.0 0.00 0.00 0.00 49 1019.1
20260503024548 61 38 0.0 2.0 0.00 0.00 0.00 50 1019.1
20260503024043 61 0 0.0 2.0 0.00 0.00 0.00 50 1019.0
20260503023542 61 38 0.0 2.0 0.00 0.00 0.00 51 1019.0
20260503023058 61 0 1.0 2.0 0.00 0.00 0.00 50 1019.1
20260503022543 61 38 0.0 2.0 0.00 0.00 0.00 50 1019.2
20260503022043 61 0 0.0 1.0 0.00 0.00 0.00 51 1019.3
20260503021550 60 0 0.0 1.0 0.00 0.00 0.00 50 1019.4
20260503021044 60 0 0.0 1.0 0.00 0.00 0.00 52 1019.2
20260503020543 60 0 0.0 1.0 0.00 0.00 0.00 52 1019.2
20260503020100 60 317 0.0 1.0 0.00 0.00 0.00 53 1019.4
20260503015543 60 0 0.0 2.0 0.00 0.00 0.00 53 1019.4
20260503015042 59 0 0.0 2.0 0.00 0.00 0.00 54 1019.4
20260503014555 59 306 0.0 3.0 0.00 0.00 0.00 55 1019.3
20260503014042 58 306 1.0 3.0 0.00 0.00 0.00 56 1019.5
20260503013543 58 306 1.0 4.0 0.00 0.00 0.00 57 1019.5
20260503013050 57 0 1.0 4.0 0.00 0.00 0.00 57 1019.5
20260503012543 57 296 1.0 3.0 0.00 0.00 0.00 57 1019.6
20260503012042 57 15 0.0 2.0 0.00 0.00 0.00 57 1019.6
20260503011605 58 0 0.0 1.0 0.00 0.00 0.00 57 1019.7
20260503011042 58 0 0.0 3.0 0.00 0.00 0.00 56 1019.7
20260503010544 58 0 0.0 4.0 0.00 0.00 0.00 56 1019.7
20260503010052 58 15 2.0 4.0 0.00 0.00 0.00 56 1019.7
20260503005542 58 26 2.0 4.0 0.00 0.00 0.00 55 1019.8
20260503005043 59 32 2.0 4.0 0.00 0.00 0.00 55 1019.8
20260503004553 59 45 2.0 4.0 0.00 0.00 0.00 55 1019.8
20260503004042 58 26 2.0 4.0 0.00 0.00 0.00 55 1020.0
20260503003543 58 28 2.0 4.0 0.00 0.00 0.00 56 1019.9
20260503003050 58 34 2.0 4.0 0.00 0.00 0.00 57 1020.0
20260503002542 58 38 2.0 4.0 0.00 0.00 0.00 56 1020.0
20260503002042 58 43 1.0 2.0 0.00 0.00 0.00 53 1020.0
20260503001611 59 81 0.0 3.0 0.00 0.00 0.00 52 1020.1
20260503001043 59 76 0.0 3.0 0.00 0.00 0.00 53 1020.1
20260503000542 59 71 1.0 3.0 0.00 0.00 0.00 54 1020.1
20260503000113 58 0 0.0 2.0 0.00 0.00 0.00 54 1020.2
20260502235545 58 71 0.0 2.0 0.00 0.00 0.00 55 1020.2
20260502235043 58 58 0.0 2.0 0.00 0.00 0.00 56 1020.3
20260502234559 58 0 0.0 2.0 0.00 0.00 0.00 56 1020.4
20260502234043 59 44 0.0 3.0 0.00 0.00 0.00 54 1020.5
20260502233543 59 44 1.0 3.0 0.00 0.00 0.00 49 1020.5
20260502233053 59 26 1.0 3.0 0.00 0.00 0.00 46 1020.5
20260502232542 59 26 1.0 3.0 0.00 0.00 0.00 52 1020.6
20260502232042 59 26 0.0 3.0 0.00 0.00 0.00 54 1020.6
20260502231615 59 19 2.0 4.0 0.00 0.00 0.00 53 1020.7
20260502231042 60 19 2.0 4.0 0.00 0.00 0.00 53 1020.7
20260502230542 60 19 2.0 4.0 0.00 0.00 0.00 54 1020.6